Location: *
(43.0833°N, 13.0500°E)
Time: 22:58:08
(UTC+00:00)

Cosmos 1607 - Pass Details

Date: 15 November 2019
Orbit: 928 x 974 km, 65.0° (Epoch: 06 December)

Event Time Altitude Azimuth Distance (km) Brightness Sun altitude
Rises 16:12:59 0° 328° (NNW) 3,603 7.1 -5.7°
Reaches altitude 10° 16:15:36 10° 334° (NNW) 2,662 6.4 -6.1°
Maximum altitude 16:21:39 53° 50° (NE) 1,159 4.1 -7.1°
Drops below altitude 10° 16:27:45 10° 127° (SE) 2,680 6.0 -8.2°
Sets 16:30:23 0° 132° (SE) 3,629 6.7 -8.7°
